Weather History for Deadhorse, AK

Change the Weather History Date:

Tuesday, August 6, 2013

  Actual Average Record
Temperature  
Mean Temperature 44 °F -  
Max Temperature 48 °F 53 °F 79 °F (1999)
Min Temperature 39 °F 39 °F 33 °F (2007)
Degree Days  
Heating Degree Days 22    
Moisture  
Dew Point 41 °F    
Average Humidity 93    
Maximum Humidity 100    
Minimum Humidity 81    
Precipitation  
Precipitation 0.00 in - - ()
Sea Level Pressure  
Sea Level Pressure 30.07 in    
Wind  
Wind Speed 14 mph (ENE)    
Max Wind Speed 23 mph    
Max Gust Speed 26 mph    
Visibility 4 miles    
Events Fog    
Averages and records for this station are not official NWS values.
T = Trace of Precipitation, MM = Missing Value Source: NWS Daily Summary

Daily Weather History Graph

Daily Weather History Graph

Search for Another Location

Airport:

Trip Planner

Search our weather history database for the weather conditions in past years. The results will help you decide how hot, cold, wet, or windy it might be!

Date:

Astronomy

Aug. 06, 2013 Rise Set
Actual Time 3:57 AM AKDT 11:56 PM AKDT
Civil Twilight Sun does not rise Sun does not rise
Nautical Twilight Sun does not rise Sun does not rise
Astronomical Twilight Sun does not rise Sun does not rise
Moon 5:00 AM AKDT (8/6) 10:10 PM AKDT (8/6)
Length of Visible Light 24h 00m
Length of Day
19h 58m
Waning Crescent, 0% of the Moon is Illuminated
Aug 6
Waning Crescent
Aug 6
New
Aug 14
First Quarter
Aug 20
Full
Aug 28
Last Quarter

Hourly Weather History & Observations

Time (AKDT) Temp. Windchill Dew Point Humidity Pressure Visibility Wind Dir Wind Speed Gust Speed Precip Events Conditions
12:25 AM 41.0 °F 34.7 °F 39.2 °F 93% 30.05 in 1.0 mi ENE 10.4 mph - N/A   Overcast
12:53 AM 39.0 °F 32.8 °F 39.0 °F 100% 30.06 in 1.0 mi ENE 9.2 mph - N/A   Overcast
1:28 AM 39.2 °F 32.0 °F 37.4 °F 93% 30.05 in 0.5 mi NE 11.5 mph - N/A Fog Fog
1:53 AM 39.0 °F 32.8 °F 37.9 °F 96% 30.07 in 1.0 mi ENE 9.2 mph - N/A   Overcast
2:16 AM 39.2 °F 32.0 °F 37.4 °F 93% 30.07 in 3.0 mi NE 11.5 mph - N/A   Overcast
2:53 AM 39.9 °F 33.4 °F 37.9 °F 93% 30.08 in 4.0 mi NNE 10.4 mph - N/A   Overcast
3:44 AM 39.2 °F 33.0 °F 37.4 °F 93% 30.08 in 7.0 mi NE 9.2 mph - N/A Fog Shallow Fog
3:53 AM 39.9 °F 32.9 °F 37.9 °F 93% 30.09 in 7.0 mi NE 11.5 mph - N/A Fog Shallow Fog
4:25 AM 39.2 °F 31.2 °F 37.4 °F 93% 30.09 in 10.0 mi NE 13.8 mph - N/A   Mostly Cloudy
4:53 AM 41.0 °F 34.3 °F 37.9 °F 89% 30.10 in 10.0 mi NE 11.5 mph - N/A   Overcast
5:53 AM 41.0 °F 33.5 °F 37.9 °F 89% 30.11 in 10.0 mi NE 13.8 mph - N/A   Overcast
6:11 AM 41.0 °F 32.8 °F 37.4 °F 87% 30.11 in 10.0 mi NE 16.1 mph - N/A   Overcast
6:53 AM 39.9 °F 31.8 °F 37.0 °F 89% 30.11 in 10.0 mi NE 15.0 mph - N/A   Overcast
7:53 AM 39.9 °F 31.8 °F 37.9 °F 93% 30.12 in 10.0 mi NE 15.0 mph - N/A   Overcast
8:53 AM 41.0 °F 32.2 °F 37.9 °F 89% 30.12 in 10.0 mi ENE 18.4 mph - N/A   Overcast
9:26 AM 42.8 °F 34.3 °F 37.4 °F 81% 30.12 in 10.0 mi ENE 19.6 mph - N/A   Overcast
9:49 AM 42.8 °F 34.8 °F 39.2 °F 87% 30.12 in 10.0 mi ENE 17.3 mph - N/A   Overcast
9:53 AM 43.0 °F 34.8 °F 39.0 °F 86% 30.12 in 10.0 mi ENE 18.4 mph - N/A   Overcast
10:53 AM 44.1 °F 36.5 °F 39.9 °F 85% 30.12 in 10.0 mi ENE 17.3 mph - N/A   Overcast
11:53 AM 44.1 °F 36.5 °F 39.9 °F 85% 30.12 in 10.0 mi ENE 17.3 mph - N/A   Overcast
12:53 PM 44.1 °F 36.2 °F 41.0 °F 89% 30.11 in 10.0 mi ENE 18.4 mph - N/A   Overcast
1:12 PM 44.6 °F 36.9 °F 41.0 °F 87% 30.11 in 5.0 mi ENE 18.4 mph - N/A   Overcast
1:53 PM 45.0 °F 37.9 °F 42.1 °F 90% 30.11 in 4.0 mi ENE 16.1 mph - N/A   Overcast
2:32 PM 44.6 °F 36.9 °F 42.8 °F 93% 30.10 in 2.5 mi ENE 18.4 mph - N/A   Overcast
2:51 PM 44.6 °F 37.2 °F 42.8 °F 93% 30.10 in 3.0 mi ENE 17.3 mph - N/A   Overcast
2:53 PM 45.0 °F 37.4 °F 42.1 °F 90% 30.10 in 3.0 mi ENE 18.4 mph - N/A   Overcast
3:36 PM 44.6 °F 36.4 °F 42.8 °F 93% 30.09 in 2.0 mi ENE 20.7 mph - N/A   Overcast
3:43 PM 44.6 °F 36.4 °F 42.8 °F 93% 30.09 in 1.5 mi ENE 20.7 mph - N/A   Overcast
3:53 PM 45.0 °F 37.4 °F 43.0 °F 93% 30.09 in 1.5 mi ENE 18.4 mph - N/A   Overcast
4:53 PM 45.0 °F 37.1 °F 43.0 °F 93% 30.08 in 1.5 mi ENE 19.6 mph - N/A   Overcast
5:17 PM 44.6 °F 36.4 °F 42.8 °F 93% 30.06 in 0.8 mi ENE 20.7 mph - N/A   Overcast
5:53 PM 45.0 °F 36.4 °F 44.1 °F 97% 30.05 in 0.5 mi ENE 23.0 mph - N/A Fog Fog
6:53 PM 45.0 °F 37.4 °F 45.0 °F 100% 30.04 in 0.5 mi ENE 18.4 mph - N/A Fog Fog
7:53 PM 46.0 °F 39.0 °F 45.0 °F 96% 30.03 in 0.5 mi ENE 17.3 mph - N/A Fog Fog
8:53 PM 46.0 °F 38.8 °F 45.0 °F 96% 30.02 in 0.2 mi ENE 18.4 mph - N/A Fog Fog
9:35 PM 46.4 °F 39.5 °F 46.4 °F 100% 30.01 in 0.5 mi ENE 17.3 mph - N/A Fog Fog
9:53 PM 46.9 °F - 46.0 °F 97% 30.01 in 0.5 mi ENE 15.0 mph - N/A Fog Fog
10:14 PM 48.2 °F - 46.4 °F 93% 30.00 in 0.2 mi East 18.4 mph - N/A Fog Fog
10:27 PM 48.2 °F - 46.4 °F 93% 30.00 in 0.2 mi East 18.4 mph 25.3 mph N/A Fog Fog
10:53 PM 46.9 °F - 46.9 °F 100% 30.00 in 0.2 mi East 18.4 mph 26.5 mph N/A Fog Fog
11:35 PM 46.4 °F 39.5 °F 46.4 °F 100% 29.99 in 0.2 mi East 17.3 mph - N/A Fog Fog
11:53 PM 46.9 °F - 46.9 °F 100% 29.99 in 0.5 mi East 15.0 mph - N/A Fog Fog